SCP
0 0 0 0 0 0 0 0 0 0 0 0 0 0 0 0 0 0 0 0 0 0 0 0 0 0 0 0 0 0 0 0 0 0 0 0 0 0 0 0 0 0 0 0
0 0 0 0 0 0 0 0 0 0 0 0 0 0 0 0 0 0 0 0 0 -0 0 0 0 0 0 0 0 0 0 0 0 0 0 0 0 0 0 0 0 0 0 0
0 0 0 0 0 0 0 0 0 0 0 0 0 0 0 0 0 -0 0 0 0 0 0 0 0 0 0 0 0 0 0 0 0 0 0 0 0 0 0 0 0 0 0 0
0 0 0 0 0 0 0 0 0 0 0 0 0 0 0 0 0 0 0 0 -0 -0 0 0 0 0 0 0 0 0 0 0 0 0 0 0 0 0 0 0 0 0 0 0
0 0 0 0 0 0 0 0 0 0 0 0 -0 -0 0 0 -0 0 0 0 0 0 0 0 0 0 0 0 0 0 0 0 0 0 0 0 0 0 0 0 0 0 0 0
0 0 0 0 0 0 0 0 0 0 0 -0 0 0 0 0 -0 -0 0 0 0 0 0 0 0 0 0 0 0 0 0 0 0 0 0 0 0 0 0 0 0 0 0 0
0 0 0 0 0 0 0 0 0 0 0 0 0 0 -0 0 -0 -0 0 0 0 0 0 0 0 0 0 0 0 0 0 0 0 0 0 0 0 0 0 0 0 0 0 0
0 0 0 0 0 0 0 0 0 0 0 -0 -0 -0 -0 -0 -0 -0 0 0 0 0 0 0 0 0 0 0 0 0 0 0 0 0 0 0 0 0 0 0 0 0 0 0
0 0 0 0 0 0 0 0 0 -0 -0 -0 -0 -0 0 0 0 0 0 0 0 0 0 0 0 0 0 0 0 0 0 0 0 0 0 0 0 0 0 0 0 0 0 0
0 0 0 0 0 0 0 -0 0 0 0 0 -0 0 0 0 0 0 0 0 0 0 0 0 0 0 0 0 0 0 -0 0 0 0 0 0 0 0 0 0 0 0 0 0
0 0 0 0 0 0 0 0 -0 0 0 0 0 0 0 0 0 0 0 0 0 0 0 0 0 0 0 0 0 0 0 0 0 0 0 0 0 0 -0 0 0 0 0 -0
0 0 0 0 0 0 -0 -0 -0 -0 -0 0 -0 -0 0 0 0 0 0 0 0 0 0 0 0 0 0 0 0 0 0 0 0 0 0 0 0 0 0 0 -0 -0 -0 -0
0 0 0 0 0 0 -0 -0 -0 -0 -0 -0 -0 -0 -0 0 0 0 0 0 0 0 0 0 0 0 0 0 -0 0 0 0 0 0 0 0 0 0 -0 -0 -0 -0 -0 -0
0 -0 -0 0 0 -0 -0 -0 -0 -0 -0 -0 -0 0 0 0 0 0 0 0 0 0 0 0 0 0 0 0 -0 -0 0 -0 0 0 0 0 0 -0 0 -0 -0 -0 -0 -0
0 0 0 -0 -0 -0 -0 -0 -0 -0 -0 -0 -0 -0 0 0 0 0 0 0 0 0 0 0 0 0 0 0 -0 -0 -0 -0 0 0 0 -0 -0 -0 0 0 -0 -0 -0 -0
-0 0 -0 -0 -0 -0 -0 -0 -0 -0 -0 -0 0 0 0 0 0 0 0 0 0 0 0 0 0 0 0 0 0 -0 -0 -0 -0 0 0 -0 -0 -0 -0 -0 -0 -0 -0 0
-0 0 -0 -0 -0 -0 -0 -0 -0 -0 -0 0 0 0 0 0 0 0 0 0 0 0 0 0 0 0 0 0 0 0 0 0 -0 0 0 0 -0 -0 -0 -0 -0 -0 -0 -0
0 -0 -0 -0 -0 -0 -0 -0 -0 -0 0 0 0 0 0 0 0 0 0 0 0 0 0 0 0 -0 0 0 0 -0 0 0 0 0 0 0 0 -0 -0 -0 -0 -0 -0 -0
-0 -0 -0 -0 -0 -0 -0 -0 0 0 0 0 0 0 0 0 0 0 0 0 0 0 0 0 0 -0 -0 -0 -0 -0 -0 0 0 0 0 0 0 0 -0 -0 -0 -0 -0 -0
-0 -0 -0 -0 -0 -0 -0 0 0 0 0 0 0 0 0 0 0 0 0 0 0 0 -0 0 -0 -0 -0 -0 0 -0 -0 -0 0 0 0 0 0 0 -0 -0 -0 -0 0 0
-0 -0 -0 -0 -0 -0 0 0 0 0 -0 0 0 0 -0 -0 -0 0 0 0 -0 -0 0 0 -0 -0 -0 -0 -0 -0 -0 -0 -0 0 0 0 0 0 0 0 0 0 0 0
0 0 0 0 0 0 0 -0 0 0 0 0 0 0 0 0 0 0 0 0 -0 -0 0 0 -0 -0 -0 0 -0 -0 -0 -0 -0 -0 -0 0 0 0 0 0 0 0 0 0
0 0 0 -0 -0 0 0 0 0 0 0 0 0 0 -0 -0 -0 0 0 -0 0 0 0 0 0 0 0 -0 -0 -0 -0 -0 -0 -0 -0 -0 0 0 0 0 0 0 0 0
0 0 -0 -0 -0 -0 0 0 0 0 0 0 0 0 0 -0 -0 -0 0 0 0 0 -0 -0 0 0 0 0 -0 -0 -0 -0 -0 -0 -0 -0 -0 -0 -0 0 0 0 0 0
-0 -0 -0 -0 -0 0 0 0 0 0 0 0 0 0 -0 -0 -0 -0 -0 0 0 0 0 0 0 0 0 0 0 0 -0 -0 -0 -0 -0 -0 -0 -0 -0 -0 -0 -0 0 0
-0 0 0 -0 -0 0 0 0 0 0 0 -0 -0 -0 -0 -0 0 0 0 0 0 0 0 0 0 0 0 0 0 0 0 -0 -0 -0 -0 -0 -0 -0 -0 -0 -0 -0 0 0
0 0 0 0 0 0 0 0 0 0 0 -0 -0 -0 0 0 0 0 0 0 0 0 0 0 0 0 0 0 0 0 0 0 0 -0 -0 -0 -0 -0 -0 -0 -0 -0 -0 -0
Wind_Speed_500mb
7 12 12 18 16 14 8 7 15 15 17 32 32 33 36 48 53 54 50 49 63 42 52 59 45 33 22 14 9 5 7 11 14 18 23 28 34 39 43 46 50 54 59 60
9 18 14 12 12 16 11 10 12 23 15 17 34 39 36 43 46 46 55 55 65 67 65 46 34 24 14 4 3 8 13 17 22 27 33 39 44 48 51 52 52 54 56 57
5 8 11 6 9 6 8 6 23 12 16 32 32 31 41 37 45 53 51 63 60 52 46 33 20 9 2 9 16 22 27 32 36 39 43 45 46 47 47 47 49 53 53 49
8 15 5 4 5 4 20 12 25 28 30 30 38 44 45 56 59 58 60 57 49 39 32 22 14 9 13 15 19 26 32 37 40 42 42 42 40 40 40 44 49 51 41 34
9 8 2 1 2 11 12 10 13 34 36 52 68 77 47 52 61 63 59 48 42 33 28 23 18 22 25 25 29 31 34 38 39 36 33 32 33 33 36 47 41 38 34 29
7 11 7 6 5 16 14 9 13 44 45 49 57 20 10 52 64 57 50 43 37 30 25 22 27 28 26 29 33 34 36 35 32 30 30 32 31 33 36 38 37 34 33 29
7 9 2 5 11 3 13 14 39 46 59 48 13 27 60 65 57 47 40 34 28 24 21 20 19 21 25 30 37 38 37 35 31 30 30 29 29 27 31 32 28 26 29 27
7 8 6 8 9 4 9 58 61 47 64 76 89 79 71 63 55 46 42 36 26 20 22 23 23 26 31 35 42 45 41 31 26 24 24 24 24 24 23 24 25 26 28 29
6 3 8 5 29 45 74 66 58 79 78 100 87 78 70 64 55 45 35 30 24 22 22 23 23 25 23 29 41 43 30 22 21 19 19 21 23 25 24 22 21 24 27 33
10 16 25 59 60 62 73 85 76 85 85 88 86 75 67 58 50 41 32 30 25 21 21 22 24 24 25 29 41 37 25 22 23 25 26 21 22 22 19 20 19 21 30 39
35 29 52 52 69 86 86 89 85 76 80 82 77 65 58 50 42 34 29 25 19 20 21 22 24 25 29 34 40 39 24 22 26 30 29 23 25 23 19 16 23 31 36 35
12 19 50 40 65 92 90 84 86 84 76 66 62 63 53 46 34 26 23 18 16 19 18 18 21 23 28 31 39 42 29 24 25 29 33 26 24 17 16 14 19 20 20 22
25 62 69 64 71 77 84 76 71 71 67 67 56 50 42 41 30 24 19 14 15 15 14 15 17 21 26 30 35 41 40 29 26 27 31 32 34 33 27 23 17 18 14 11
82 90 59 69 58 74 74 71 66 65 59 54 49 42 41 40 31 22 19 14 10 8 10 14 16 22 25 28 31 38 40 36 29 26 27 30 32 34 38 42 38 33 24 20
53 72 81 81 78 76 71 68 67 62 56 52 42 41 35 32 26 23 18 14 11 9 13 14 17 22 25 28 30 36 39 36 32 27 26 27 27 31 40 41 41 40 36 31
75 81 79 78 75 71 67 64 69 63 55 51 44 36 32 28 26 23 20 18 11 16 18 18 20 25 28 28 28 30 34 31 29 28 27 31 30 36 38 38 42 48 46 45
71 58 68 67 67 62 60 57 57 54 49 42 38 33 28 26 24 22 23 21 18 16 18 22 26 28 29 26 27 29 28 26 23 23 27 29 32 36 37 37 38 44 47 45
65 64 62 67 65 61 55 49 45 43 43 39 34 31 28 24 25 23 21 20 18 18 20 23 26 31 31 28 26 24 23 22 23 27 26 27 28 30 34 37 39 39 40 42
57 62 62 60 58 56 51 48 44 41 37 33 32 31 27 27 23 21 18 18 19 22 26 20 24 33 37 34 31 28 27 25 24 25 26 26 28 31 33 35 36 37 40 42
55 60 57 56 52 48 50 45 42 36 34 32 30 29 27 25 22 19 18 24 24 27 24 19 21 33 39 36 32 34 35 34 34 33 28 26 27 32 34 38 38 39 39 41
58 59 58 56 51 44 41 41 39 36 32 27 27 24 22 22 21 21 21 26 24 19 18 21 23 31 37 37 36 37 38 40 38 39 38 39 37 38 39 40 42 42 40 40
58 57 55 48 43 41 37 35 35 33 29 27 23 20 18 19 17 21 26 24 22 14 15 20 21 25 32 36 38 39 38 40 41 38 41 38 39 40 40 40 43 42 41 41
56 54 51 46 44 42 39 32 29 27 23 20 19 17 15 21 19 16 24 23 16 15 16 17 16 19 27 33 37 37 37 39 41 41 39 40 38 39 39 39 41 42 40 41
54 50 48 48 42 39 39 34 28 23 19 19 18 11 13 15 19 21 18 16 13 16 22 21 17 20 25 28 31 33 33 36 36 37 38 37 37 37 38 39 41 43 44 44
51 50 48 47 45 39 36 29 21 16 18 22 15 12 13 19 15 23 16 13 14 19 24 25 26 21 22 25 27 29 29 31 33 34 35 37 37 38 38 38 40 43 43 45
45 43 42 33 27 30 21 13 19 24 24 26 22 18 17 14 13 15 14 14 15 19 23 29 30 27 24 23 25 26 27 27 29 32 34 35 35 36 38 39 39 41 43 45
37 35 31 27 23 24 27 26 23 24 20 18 20 20 15 11 9 5 4 8 8 11 18 27 34 33 26 22 22 23 26 27 29 30 31 33 34 36 39 40 41 42 43 43
Wind_Direction_500mb
192 164 128 137 139 125 123 166 154 169 153 170 161 152 137 131 128 126 123 129 126 126 137 153 151 145 148 157 171 191 269 282 285 289 289 289 288 288 289 290 290 289 289 289
84 78 74 150 151 123 154 129 58 124 82 125 140 137 132 137 129 120 115 114 119 135 139 139 139 146 149 153 321 332 308 301 299 296 294 293 293 294 295 295 295 294 295 296
129 72 87 79 196 113 119 151 141 135 159 138 141 149 149 139 122 116 116 126 130 129 124 125 124 107 21 330 330 316 312 310 306 303 300 299 300 302 301 301 300 298 296 295
135 99 143 289 306 95 93 54 109 97 126 118 115 109 126 132 124 124 130 121 117 111 105 95 72 35 14 350 337 328 322 316 311 308 308 308 308 309 310 310 310 307 302 295
127 94 337 155 187 163 142 37 105 117 114 114 109 93 69 124 139 130 124 117 108 99 87 74 51 31 14 4 355 343 336 330 323 318 317 316 316 317 322 319 319 321 320 313
114 107 163 229 263 201 110 98 136 127 135 136 137 112 124 126 129 123 116 108 100 87 76 64 43 30 13 10 3 351 344 336 328 325 324 324 323 321 320 317 315 317 317 317
85 99 167 232 261 277 98 186 146 140 138 134 111 123 134 128 122 117 109 101 97 104 86 67 49 34 22 19 10 357 343 337 328 326 329 326 323 322 320 319 319 326 329 325
90 98 184 192 107 128 156 134 137 130 121 111 117 124 130 130 123 119 113 109 95 87 74 61 41 20 13 9 5 355 349 346 343 339 337 333 328 328 327 328 338 339 338 342
68 120 286 69 110 118 129 120 119 117 120 125 126 130 131 129 126 120 113 108 95 79 64 52 40 26 17 19 7 1 1 8 13 14 6 355 345 342 346 348 353 354 349 351
71 46 79 98 101 109 113 113 118 121 124 130 128 133 131 127 123 118 111 102 92 80 67 59 41 28 23 21 16 11 15 27 24 20 14 6 356 8 12 12 14 1 351 355
95 100 86 84 101 109 107 115 117 123 133 131 129 127 124 120 117 114 107 99 87 68 55 49 37 35 29 24 19 18 21 33 26 15 14 33 18 18 26 15 354 345 342 352
120 94 108 106 109 120 118 122 130 129 126 125 124 126 126 119 115 108 106 95 76 60 54 48 40 37 33 24 18 17 24 34 26 18 24 33 43 41 20 356 337 335 340 3
100 105 101 106 113 120 121 124 125 125 126 126 124 127 127 121 116 117 99 71 52 48 50 44 30 27 30 24 17 17 24 30 30 22 28 34 40 45 57 51 27 38 26 13
116 114 96 117 107 124 126 128 128 126 127 126 126 126 125 125 125 110 93 69 46 40 47 38 23 21 28 22 13 18 26 29 32 30 34 38 42 43 42 38 41 55 62 64
114 120 118 123 125 124 127 129 124 124 126 125 129 128 128 122 111 95 81 66 55 66 57 50 36 34 27 18 8 16 21 28 33 39 42 42 44 48 49 42 42 49 60 68
112 119 124 124 125 130 132 132 130 132 133 131 128 123 115 107 99 91 78 66 65 67 61 52 41 23 14 10 4 8 15 21 27 36 46 51 48 53 52 49 44 46 47 45
117 115 121 124 132 134 134 133 132 135 133 127 120 113 106 100 92 76 67 54 56 74 67 52 42 22 14 14 8 6 12 20 28 34 38 48 50 52 55 53 51 48 48 49
136 136 137 136 138 135 134 134 133 133 129 123 119 109 98 86 77 74 64 60 72 84 71 58 40 23 26 28 23 24 29 34 36 40 43 43 48 53 53 54 51 50 47 46
141 139 138 136 135 133 134 134 135 132 128 128 121 109 93 78 77 81 71 91 91 76 69 68 41 31 35 37 37 39 43 45 43 44 46 48 51 54 53 52 48 44 43 42
145 143 144 140 137 133 136 134 130 127 129 131 123 110 90 80 76 81 79 95 83 68 64 65 37 36 36 38 38 42 47 51 50 47 46 44 49 50 52 51 47 46 42 39
151 149 145 142 141 136 132 131 127 119 125 117 114 110 99 87 77 81 83 93 84 71 52 57 43 39 38 38 38 41 45 48 48 47 46 46 48 48 46 45 42 42 41 40
145 143 143 142 135 133 134 133 130 128 136 133 132 121 97 79 85 103 88 94 86 79 59 59 47 36 33 34 34 36 40 44 46 47 45 44 44 43 42 39 38 38 36 34
146 149 146 143 140 143 151 148 149 150 154 153 145 124 95 76 78 115 102 101 91 59 48 45 38 20 18 24 26 28 33 36 40 41 40 39 38 36 35 34 32 32 31 30
151 150 149 151 152 153 153 159 156 148 143 157 155 114 61 62 103 124 117 101 77 43 42 38 18 2 358 8 15 18 22 27 31 34 33 33 35 33 32 31 29 29 28 26
158 157 157 157 156 154 150 147 138 135 148 152 141 123 93 89 83 107 109 83 62 41 32 28 15 2 351 352 360 8 14 17 20 21 24 25 26 26 25 24 23 22 21 21
155 156 157 162 161 150 145 152 141 130 130 128 122 125 127 121 100 94 91 66 49 38 32 23 16 4 352 349 350 357 5 9 11 12 13 14 16 16 16 15 16 15 13 11
152 151 151 148 148 146 147 153 151 145 140 125 114 123 145 158 169 132 106 62 49 30 25 20 15 9 360 351 349 351 355 358 358 0 4 5 6 8 8 8 7 6 5 3
Wind_Speed_850mb
7 12 12 18 16 14 8 7 15 15 17 32 32 33 36 48 53 54 50 49 63 42 52 59 45 33 22 14 9 5 7 11 14 18 23 28 34 39 43 46 50 54 59 60
9 18 14 12 12 16 11 10 12 23 15 17 34 39 36 43 46 46 55 55 65 67 65 46 34 24 14 4 3 8 13 17 22 27 33 39 44 48 51 52 52 54 56 57
5 8 11 6 9 6 8 6 23 12 16 32 32 31 41 37 45 53 51 63 60 52 46 33 20 9 2 9 16 22 27 32 36 39 43 45 46 47 47 47 49 53 53 49
8 15 5 4 5 4 20 12 25 28 30 30 38 44 45 56 59 58 60 57 49 39 32 22 14 9 13 15 19 26 32 37 40 42 42 42 40 40 40 44 49 51 41 34
9 8 2 1 2 11 12 10 13 34 36 52 68 77 47 52 61 63 59 48 42 33 28 23 18 22 25 25 29 31 34 38 39 36 33 32 33 33 36 47 41 38 34 29
7 11 7 6 5 16 14 9 13 44 45 49 57 20 10 52 64 57 50 43 37 30 25 22 27 28 26 29 33 34 36 35 32 30 30 32 31 33 36 38 37 34 33 29
7 9 2 5 11 3 13 14 39 46 59 48 13 27 60 65 57 47 40 34 28 24 21 20 19 21 25 30 37 38 37 35 31 30 30 29 29 27 31 32 28 26 29 27
7 8 6 8 9 4 9 58 61 47 64 76 89 79 71 63 55 46 42 36 26 20 22 23 23 26 31 35 42 45 41 31 26 24 24 24 24 24 23 24 25 26 28 29
6 3 8 5 29 45 74 66 58 79 78 100 87 78 70 64 55 45 35 30 24 22 22 23 23 25 23 29 41 43 30 22 21 19 19 21 23 25 24 22 21 24 27 33
10 16 25 59 60 62 73 85 76 85 85 88 86 75 67 58 50 41 32 30 25 21 21 22 24 24 25 29 41 37 25 22 23 25 26 21 22 22 19 20 19 21 30 39
35 29 52 52 69 86 86 89 85 76 80 82 77 65 58 50 42 34 29 25 19 20 21 22 24 25 29 34 40 39 24 22 26 30 29 23 25 23 19 16 23 31 36 35
12 19 50 40 65 92 90 84 86 84 76 66 62 63 53 46 34 26 23 18 16 19 18 18 21 23 28 31 39 42 29 24 25 29 33 26 24 17 16 14 19 20 20 22
25 62 69 64 71 77 84 76 71 71 67 67 56 50 42 41 30 24 19 14 15 15 14 15 17 21 26 30 35 41 40 29 26 27 31 32 34 33 27 23 17 18 14 11
82 90 59 69 58 74 74 71 66 65 59 54 49 42 41 40 31 22 19 14 10 8 10 14 16 22 25 28 31 38 40 36 29 26 27 30 32 34 38 42 38 33 24 20
53 72 81 81 78 76 71 68 67 62 56 52 42 41 35 32 26 23 18 14 11 9 13 14 17 22 25 28 30 36 39 36 32 27 26 27 27 31 40 41 41 40 36 31
75 81 79 78 75 71 67 64 69 63 55 51 44 36 32 28 26 23 20 18 11 16 18 18 20 25 28 28 28 30 34 31 29 28 27 31 30 36 38 38 42 48 46 45
71 58 68 67 67 62 60 57 57 54 49 42 38 33 28 26 24 22 23 21 18 16 18 22 26 28 29 26 27 29 28 26 23 23 27 29 32 36 37 37 38 44 47 45
65 64 62 67 65 61 55 49 45 43 43 39 34 31 28 24 25 23 21 20 18 18 20 23 26 31 31 28 26 24 23 22 23 27 26 27 28 30 34 37 39 39 40 42
57 62 62 60 58 56 51 48 44 41 37 33 32 31 27 27 23 21 18 18 19 22 26 20 24 33 37 34 31 28 27 25 24 25 26 26 28 31 33 35 36 37 40 42
55 60 57 56 52 48 50 45 42 36 34 32 30 29 27 25 22 19 18 24 24 27 24 19 21 33 39 36 32 34 35 34 34 33 28 26 27 32 34 38 38 39 39 41
58 59 58 56 51 44 41 41 39 36 32 27 27 24 22 22 21 21 21 26 24 19 18 21 23 31 37 37 36 37 38 40 38 39 38 39 37 38 39 40 42 42 40 40
58 57 55 48 43 41 37 35 35 33 29 27 23 20 18 19 17 21 26 24 22 14 15 20 21 25 32 36 38 39 38 40 41 38 41 38 39 40 40 40 43 42 41 41
56 54 51 46 44 42 39 32 29 27 23 20 19 17 15 21 19 16 24 23 16 15 16 17 16 19 27 33 37 37 37 39 41 41 39 40 38 39 39 39 41 42 40 41
54 50 48 48 42 39 39 34 28 23 19 19 18 11 13 15 19 21 18 16 13 16 22 21 17 20 25 28 31 33 33 36 36 37 38 37 37 37 38 39 41 43 44 44
51 50 48 47 45 39 36 29 21 16 18 22 15 12 13 19 15 23 16 13 14 19 24 25 26 21 22 25 27 29 29 31 33 34 35 37 37 38 38 38 40 43 43 45
45 43 42 33 27 30 21 13 19 24 24 26 22 18 17 14 13 15 14 14 15 19 23 29 30 27 24 23 25 26 27 27 29 32 34 35 35 36 38 39 39 41 43 45
37 35 31 27 23 24 27 26 23 24 20 18 20 20 15 11 9 5 4 8 8 11 18 27 34 33 26 22 22 23 26 27 29 30 31 33 34 36 39 40 41 42 43 43
Wind_Direction_850mb
192 164 128 137 139 125 123 166 154 169 153 170 161 152 137 131 128 126 123 129 126 126 137 153 151 145 148 157 171 191 269 282 285 289 289 289 288 288 289 290 290 289 289 289
84 78 74 150 151 123 154 129 58 124 82 125 140 137 132 137 129 120 115 114 119 135 139 139 139 146 149 153 321 332 308 301 299 296 294 293 293 294 295 295 295 294 295 296
129 72 87 79 196 113 119 151 141 135 159 138 141 149 149 139 122 116 116 126 130 129 124 125 124 107 21 330 330 316 312 310 306 303 300 299 300 302 301 301 300 298 296 295
135 99 143 289 306 95 93 54 109 97 126 118 115 109 126 132 124 124 130 121 117 111 105 95 72 35 14 350 337 328 322 316 311 308 308 308 308 309 310 310 310 307 302 295
127 94 337 155 187 163 142 37 105 117 114 114 109 93 69 124 139 130 124 117 108 99 87 74 51 31 14 4 355 343 336 330 323 318 317 316 316 317 322 319 319 321 320 313
114 107 163 229 263 201 110 98 136 127 135 136 137 112 124 126 129 123 116 108 100 87 76 64 43 30 13 10 3 351 344 336 328 325 324 324 323 321 320 317 315 317 317 317
85 99 167 232 261 277 98 186 146 140 138 134 111 123 134 128 122 117 109 101 97 104 86 67 49 34 22 19 10 357 343 337 328 326 329 326 323 322 320 319 319 326 329 325
90 98 184 192 107 128 156 134 137 130 121 111 117 124 130 130 123 119 113 109 95 87 74 61 41 20 13 9 5 355 349 346 343 339 337 333 328 328 327 328 338 339 338 342
68 120 286 69 110 118 129 120 119 117 120 125 126 130 131 129 126 120 113 108 95 79 64 52 40 26 17 19 7 1 1 8 13 14 6 355 345 342 346 348 353 354 349 351
71 46 79 98 101 109 113 113 118 121 124 130 128 133 131 127 123 118 111 102 92 80 67 59 41 28 23 21 16 11 15 27 24 20 14 6 356 8 12 12 14 1 351 355
95 100 86 84 101 109 107 115 117 123 133 131 129 127 124 120 117 114 107 99 87 68 55 49 37 35 29 24 19 18 21 33 26 15 14 33 18 18 26 15 354 345 342 352
120 94 108 106 109 120 118 122 130 129 126 125 124 126 126 119 115 108 106 95 76 60 54 48 40 37 33 24 18 17 24 34 26 18 24 33 43 41 20 356 337 335 340 3
100 105 101 106 113 120 121 124 125 125 126 126 124 127 127 121 116 117 99 71 52 48 50 44 30 27 30 24 17 17 24 30 30 22 28 34 40 45 57 51 27 38 26 13
116 114 96 117 107 124 126 128 128 126 127 126 126 126 125 125 125 110 93 69 46 40 47 38 23 21 28 22 13 18 26 29 32 30 34 38 42 43 42 38 41 55 62 64
114 120 118 123 125 124 127 129 124 124 126 125 129 128 128 122 111 95 81 66 55 66 57 50 36 34 27 18 8 16 21 28 33 39 42 42 44 48 49 42 42 49 60 68
112 119 124 124 125 130 132 132 130 132 133 131 128 123 115 107 99 91 78 66 65 67 61 52 41 23 14 10 4 8 15 21 27 36 46 51 48 53 52 49 44 46 47 45
117 115 121 124 132 134 134 133 132 135 133 127 120 113 106 100 92 76 67 54 56 74 67 52 42 22 14 14 8 6 12 20 28 34 38 48 50 52 55 53 51 48 48 49
136 136 137 136 138 135 134 134 133 133 129 123 119 109 98 86 77 74 64 60 72 84 71 58 40 23 26 28 23 24 29 34 36 40 43 43 48 53 53 54 51 50 47 46
141 139 138 136 135 133 134 134 135 132 128 128 121 109 93 78 77 81 71 91 91 76 69 68 41 31 35 37 37 39 43 45 43 44 46 48 51 54 53 52 48 44 43 42
145 143 144 140 137 133 136 134 130 127 129 131 123 110 90 80 76 81 79 95 83 68 64 65 37 36 36 38 38 42 47 51 50 47 46 44 49 50 52 51 47 46 42 39
151 149 145 142 141 136 132 131 127 119 125 117 114 110 99 87 77 81 83 93 84 71 52 57 43 39 38 38 38 41 45 48 48 47 46 46 48 48 46 45 42 42 41 40
145 143 143 142 135 133 134 133 130 128 136 133 132 121 97 79 85 103 88 94 86 79 59 59 47 36 33 34 34 36 40 44 46 47 45 44 44 43 42 39 38 38 36 34
146 149 146 143 140 143 151 148 149 150 154 153 145 124 95 76 78 115 102 101 91 59 48 45 38 20 18 24 26 28 33 36 40 41 40 39 38 36 35 34 32 32 31 30
151 150 149 151 152 153 153 159 156 148 143 157 155 114 61 62 103 124 117 101 77 43 42 38 18 2 358 8 15 18 22 27 31 34 33 33 35 33 32 31 29 29 28 26
158 157 157 157 156 154 150 147 138 135 148 152 141 123 93 89 83 107 109 83 62 41 32 28 15 2 351 352 360 8 14 17 20 21 24 25 26 26 25 24 23 22 21 21
155 156 157 162 161 150 145 152 141 130 130 128 122 125 127 121 100 94 91 66 49 38 32 23 16 4 352 349 350 357 5 9 11 12 13 14 16 16 16 15 16 15 13 11
152 151 151 148 148 146 147 153 151 145 140 125 114 123 145 158 169 132 106 62 49 30 25 20 15 9 360 351 349 351 355 358 358 0 4 5 6 8 8 8 7 6 5 3